Regional Weather Roundup
Issued by NWS

Home | Current Version | Previous Version | Text Only | Print | Product List | Glossary On
Versions: 1 2 3 4 5 6 7 8 9 10 11 12 13 14 15 16 17 18 19 20 21 22 23 24 25 26
000
ASUS45 KTFX 281210
RWRMT
MONTANA REGIONAL WEATHER ROUNDUP
NATIONAL WEATHER SERVICE GREAT FALLS MT
600 AM MDT FRI JUL 28 2017

NOTE: "FAIR" INDICATES FEW OR NO CLOUDS BELOW 12000 FEET WITH NO
SIGNIFICANT WEATHER AND/OR OBSTRUCTIONS TO VISIBILITY.

MTZ001>007-043-281300-
WEST OF THE DIVIDE

CITY           SKY/WX    TMP DP  RH WIND       PRES   REMARKS
KALISPELL      CLEAR     50  47  89 CALM      30.05R
MISSOULA       CLEAR     56  49  77 CALM      30.10R
BUTTE          CLEAR     49  43  80 CALM      30.25R
MULLAN PASS    CLEAR     59  34  39 NW3       30.21R
ANACONDA         N/A     57  45  62 SE6       30.20R
DEER LODGE       N/A     50  46  87 CALM      30.20R
EUREKA           N/A     52  43  71 MISG      30.02R
HAMILTON         N/A     63  50  63 S14       30.11S
LIBBY            N/A     50  43  76 CALM      30.04R
$$

MTZ008-052>055-281300-
SOUTHWEST MONTANA

CITY           SKY/WX    TMP DP  RH WIND       PRES   REMARKS
BOZEMAN        CLEAR     53  48  83 S3        30.17R
DILLON         CLEAR     51  44  77 S8        30.22R
W YELLOWSTONE  FOG       45  45 100 CALM      30.32R VSB<1/4
ENNIS          PTCLDY    48  45  87 CALM      30.28R
THREE FORKS      N/A     55  47  74 CALM      30.14R
$$

MTZ009-010-012-014-046-048-049-054-281300-
EAST SLOPES AND CENTRAL MONTANA

CITY           SKY/WX    TMP DP  RH WIND       PRES   REMARKS
CUT BANK       CLEAR     59  54  83 N17       30.08R
GREAT FALLS    CLOUDY    59  42  53 SW6       30.06R
HELENA         CLOUDY    63  49  60 W3        30.13R
CHOTEAU          N/A     61  43  51 SW8       30.09R
$$

MTZ011-013-016-021-045-047-050-051-281300-
NORTH CENTRAL MONTANA

CITY           SKY/WX    TMP DP  RH WIND       PRES   REMARKS
HAVRE          CLEAR     63  49  60 SW10      29.95R
LEWISTOWN      CLEAR     56  47  71 SE6       30.07R
N BAR RANCH      N/A     63  45  51 CALM      30.09S
CHINOOK          N/A     61  54  77 CALM      29.95R
$$

MTZ017>020-022>027-061-062-281300-
NORTHEAST MONTANA

CITY           SKY/WX    TMP DP  RH WIND       PRES   REMARKS
GLASGOW        CLEAR     60  54  80 E15       29.95S
JORDAN           N/A     60  52  74 E6        29.98R
SIDNEY         CLEAR     60  57  89 CALM      30.00R
WOLF POINT     CLEAR     59  55  87 CALM      29.99R
MALTA          CLEAR     64  55  72 NE5       29.93R
PLENTYWOOD       N/A     63  59  88 CALM      30.00S
POPLAR           N/A     61  55  82 CALM      29.99S
$$

MTZ028>42-056>058-281300-
SOUTHCENTRAL AND SOUTHEAST MONTANA

CITY           SKY/WX    TMP DP  RH WIND       PRES   REMARKS
BAKER          CLEAR     59  54  83 SE10      30.02R
BILLINGS       CLOUDY    70  48  45 SW8       30.03R
LIVINGSTON     CLEAR     55  46  71 NW16      30.15R
MILES CITY     CLEAR     59  52  77 N7        29.98R
BIG TIMBER     PTCLDY    64  46  52 W23G30    30.12S
FORSYTH          N/A     63  57  82 CALM      29.98R
LAUREL           N/A     65  48  53 CALM      30.03S
$$

REGIONAL REPORTS...DAKOTAS

CITY           SKY/WX    TMP DP  RH WIND       PRES   REMARKS
WILLISTON      CLEAR     61  59  93 N6        30.00S
MINOT          CLOUDY    65  58  78 E6        30.02F
DICKINSON      PTCLDY    65  60  84 SE9       30.02S
BEACH          CLOUDY    63  59  88 SE9       30.05R
CROSBY           N/A     54  54 100 CALM      30.01S
TIOGA            N/A     57  57 100 CALM      30.04S
WATFORD CITY     N/A     61  61 100 SE9       30.00S
BISMARCK       CLOUDY    66  61  84 NE5       30.05S
GRAND FORKS    PTCLDY    62  60  93 SE3       30.08R
FARGO          PTCLDY    61  59  93 E5        30.08S
BUFFALO SD       N/A     60  56  86 S8        29.98R
RAPID CITY     CLOUDY    59  55  87 CALM      30.05R
$$

REGIONAL REPORTS...WYOMING/IDAHO/WASHINGTON

CITY           SKY/WX    TMP DP  RH WIND       PRES   REMARKS
GILLETTE       CLEAR     61  57  87 S12       30.08R
SHERIDAN       CLEAR     57  52  83 CALM      30.06R
BUFFALO WY     CLEAR     62  47  57 W9        30.12R
CODY           CLOUDY    61  47  59 SW3       30.16R
YELLOWSTONE LA   N/A     39  39 100 CALM      30.39R
IDAHO FALLS    CLEAR     50  49  96 N3        30.20R
BOISE          PTCLDY    71  44  37 SE10      30.01R
SPOKANE        PTCLDY    62  37  39 SE7       30.00R
$$

REGIONAL REPORTS...ALBERTA

CITY           SKY/WX    TMP DP  RH WIND       PRES   REMARKS
EDMONTON       CLEAR     54  52  94 W7        29.98R
CALGARY        MOCLDY    59  46  63 W5        30.07R
LETHBRIDGE     PTCLDY    59  52  77 NW9       30.06R
MEDICINE HAT   CLEAR     64  54  68 W9        29.97R
CARDSTON         N/A     57  54  88 W5          N/A
MILK RIVER       N/A     59  55  88 N12         N/A
$$

REGIONAL REPORTS...SASKATCHEWAN

CITY           SKY/WX    TMP DP  RH WIND       PRES   REMARKS
SWIFT CURRENT  PTCLDY    64  55  72 S12G20    29.89R
REGINA         PTCLDY    59  57  94 SE9       29.96S
SASKATOON      MOCLDY    64  59  82 S7        29.87S
CYPRESS HILLS    N/A     66  45  45 NW7         N/A
VAL MARIE        N/A     63  52  67 S2          N/A
ROCKGLEN         N/A     59  55  88 S10         N/A
ASSINIBOIA       N/A     54  54 100 W3          N/A
$$




USA.gov is the U.S. government's official web portal to all federal, state and local government web resources and services.